Total_Precipitation_Accumulation
1.48 1.56 1.63 1.71 1.78 1.72 1.67 1.57 1.66 1.76 1.81 1.85 1.95 2.08 2.15 2.22 2.42 2.60 2.56 2.68 2.67 2.64 2.60 2.73 2.89 3.14 3.11 2.96 3.13 3.30 3.54 3.81 3.42 3.05 2.84 2.61 2.58 2.45 2.33 2.23 2.08 2.06 1.86
1.50 1.64 1.86 1.86 1.88 1.81 1.66 1.58 1.63 1.67 1.73 1.77 1.89 2.00 2.01 2.19 2.43 2.52 2.48 2.64 2.70 2.64 2.69 2.82 2.78 2.90 3.01 2.95 2.96 2.98 3.23 3.51 3.38 3.19 3.21 3.06 2.87 2.70 2.61 2.47 2.07 1.93 1.90
1.69 1.78 1.90 1.92 1.86 1.74 1.68 1.64 1.67 1.67 1.69 1.74 1.76 1.81 1.90 2.08 2.27 2.38 2.51 2.61 2.73 2.78 2.79 2.70 2.59 2.75 2.85 3.04 3.05 2.97 3.02 3.14 3.36 3.23 3.15 3.20 2.92 2.69 2.79 2.62 2.35 2.35 1.89
1.56 1.63 1.72 1.66 1.61 1.60 1.63 1.63 1.63 1.68 1.70 1.76 1.79 1.88 1.93 1.98 2.06 2.24 2.39 2.37 2.36 2.38 2.36 2.36 2.34 2.43 2.59 2.99 3.01 3.05 3.07 3.11 3.30 3.29 3.25 3.25 3.28 3.04 3.00 2.78 2.65 2.50 2.15
1.53 1.58 1.64 1.67 1.68 1.69 1.62 1.53 1.59 1.65 1.61 1.75 1.86 1.85 1.87 1.89 1.83 1.98 2.00 1.94 2.05 1.98 1.93 1.86 1.85 2.00 2.04 2.22 2.23 2.61 2.92 3.00 3.09 3.20 3.21 3.23 3.24 3.38 3.11 2.92 2.87 2.76 2.52
1.39 1.45 1.63 1.75 1.76 1.72 1.61 1.62 1.65 1.69 1.75 1.81 1.85 1.85 1.82 1.67 1.86 1.89 1.85 1.80 1.82 1.78 1.73 1.70 1.60 1.65 1.72 1.74 1.74 1.94 2.25 2.57 2.89 3.11 3.11 3.15 3.23 3.34 3.40 3.25 3.14 2.92 2.72
1.34 1.43 1.50 1.60 1.65 1.55 1.47 1.53 1.59 1.67 1.80 1.88 1.92 2.00 1.98 2.02 2.03 1.89 1.79 1.69 1.68 1.67 1.65 1.68 1.41 1.31 1.50 1.41 1.53 1.59 1.68 1.89 2.08 2.50 2.78 2.84 2.98 3.11 3.35 3.23 3.17 3.06 2.90
1.46 1.58 1.55 1.64 1.79 1.80 1.74 1.75 1.83 1.90 1.90 1.92 1.93 2.01 2.08 2.02 2.05 1.85 1.76 1.57 1.55 1.60 1.61 1.64 1.59 1.52 1.55 1.58 1.60 1.53 1.46 1.52 1.63 1.67 1.79 2.05 2.31 2.67 3.00 3.15 3.27 3.24 3.17
1.57 1.70 1.71 1.71 1.87 1.98 1.97 2.04 2.11 2.14 2.01 1.96 2.01 2.06 2.10 2.14 2.15 1.87 1.73 1.56 1.58 1.60 1.54 1.59 1.66 1.55 1.59 1.51 1.52 1.55 1.49 1.43 1.44 1.51 1.45 1.60 1.77 2.01 2.35 2.59 2.75 2.96 3.16
1.77 1.80 1.89 2.00 2.08 2.16 2.36 2.59 2.65 2.65 2.50 2.37 2.21 2.15 2.10 2.13 2.18 1.93 1.82 1.63 1.68 1.78 1.82 1.79 1.77 1.63 1.54 1.45 1.39 1.44 1.39 1.35 1.42 1.42 1.35 1.29 1.32 1.48 1.76 1.92 2.11 2.41 2.67
2.20 2.25 2.29 2.38 2.51 2.60 2.85 2.98 2.99 2.97 3.04 2.95 2.74 2.58 2.50 2.45 2.36 2.14 2.10 1.96 2.04 2.13 2.05 1.95 1.82 1.70 1.46 1.36 1.31 1.29 1.30 1.37 1.48 1.55 1.52 1.43 1.37 1.36 1.43 1.62 1.86 2.03 2.17
2.41 2.42 2.50 2.71 2.65 2.73 3.00 3.00 3.07 3.22 3.24 3.12 3.12 2.99 2.84 2.78 2.53 2.30 2.21 2.11 2.03 2.02 2.00 1.89 1.77 1.69 1.42 1.27 1.18 1.14 1.20 1.21 1.22 1.30 1.35 1.38 1.37 1.30 1.35 1.53 1.76 1.97 1.99
2.40 2.49 2.66 2.89 3.03 3.10 3.31 3.41 3.35 3.29 3.21 3.14 3.17 3.06 2.94 2.87 2.68 2.33 2.16 2.14 2.05 1.89 1.88 1.91 1.82 1.68 1.50 1.29 1.27 1.23 1.15 1.12 1.19 1.23 1.24 1.33 1.38 1.40 1.44 1.58 1.74 1.97 1.99
2.48 2.53 2.68 2.84 2.96 3.06 3.24 3.30 3.29 3.22 3.18 3.16 3.13 2.97 2.84 2.75 2.59 2.38 2.18 2.08 2.03 1.88 1.84 1.88 1.79 1.62 1.44 1.35 1.34 1.24 1.12 1.18 1.31 1.28 1.28 1.35 1.54 1.64 1.60 1.58 1.73 1.86 1.96
2.69 2.75 2.85 2.97 3.11 3.24 3.16 3.22 3.26 3.22 3.13 2.99 2.92 2.88 2.85 2.72 2.63 2.45 2.23 2.09 2.03 1.98 1.89 1.82 1.76 1.63 1.50 1.43 1.44 1.45 1.45 1.42 1.37 1.36 1.45 1.50 1.58 1.68 1.66 1.71 1.81 1.83 1.78
2.77 2.81 2.85 2.93 3.06 3.07 3.07 3.03 3.03 2.90 2.86 2.66 2.66 2.68 2.59 2.57 2.48 2.23 2.08 2.01 2.03 2.08 1.91 1.80 1.87 1.84 1.74 1.67 1.66 1.67 1.64 1.58 1.56 1.60 1.65 1.65 1.63 1.65 1.65 1.77 1.90 1.88 1.80
2.77 2.82 2.81 2.81 2.87 2.94 2.95 2.93 2.84 2.77 2.70 2.54 2.47 2.39 2.27 2.29 2.24 2.19 2.18 2.16 2.13 2.05 1.86 1.86 1.96 2.00 2.00 1.97 1.89 1.77 1.72 1.66 1.63 1.63 1.64 1.65 1.63 1.70 1.77 1.85 1.94 1.96 1.93
2.67 2.71 2.60 2.57 2.69 2.83 2.85 2.91 2.95 2.87 2.78 2.62 2.52 2.44 2.22 2.06 2.05 2.11 2.24 2.19 2.05 1.93 1.85 1.97 2.06 2.11 2.15 2.14 2.02 1.91 1.83 1.78 1.71 1.70 1.74 1.80 1.83 1.85 1.85 1.85 1.91 1.96 2.02
2.61 2.64 2.63 2.64 2.70 2.79 2.87 2.96 2.99 2.88 2.80 2.66 2.39 2.23 2.17 2.05 2.02 2.05 1.99 1.87 1.91 1.99 2.01 2.12 2.17 2.15 2.06 2.00 1.95 1.92 1.85 1.82 1.78 1.78 1.79 1.83 1.86 1.90 1.91 1.95 2.01 2.14 2.14
2.45 2.67 2.74 2.62 2.65 2.75 2.85 2.92 2.94 2.92 2.86 2.77 2.58 2.30 2.12 1.99 1.86 1.91 1.83 1.79 1.83 1.87 1.93 2.00 2.10 2.16 2.13 2.06 2.01 1.94 1.90 1.85 1.80 1.79 1.79 1.82 1.90 1.92 1.86 1.91 1.97 1.96 1.98
2.34 2.42 2.59 2.51 2.45 2.53 2.66 2.68 2.73 2.73 2.61 2.52 2.46 2.32 2.17 1.98 1.91 1.87 1.87 1.86 1.81 1.77 1.83 1.92 1.96 1.94 1.89 1.85 1.87 1.85 1.83 1.85 1.83 1.81 1.84 1.86 1.89 1.88 1.79 1.76 1.77 1.79 1.80
2.37 2.40 2.31 2.28 2.29 2.36 2.42 2.44 2.44 2.39 2.34 2.29 2.21 2.12 2.05 1.87 1.85 1.84 1.80 1.79 1.75 1.68 1.66 1.65 1.69 1.71 1.67 1.64 1.67 1.71 1.72 1.70 1.74 1.75 1.77 1.76 1.78 1.77 1.76 1.77 1.78 1.82 1.90
2.35 2.34 2.27 2.17 2.09 2.18 2.19 2.16 2.14 2.08 2.09 2.07 2.03 1.88 1.79 1.74 1.70 1.63 1.56 1.51 1.47 1.47 1.48 1.48 1.51 1.51 1.47 1.44 1.45 1.53 1.55 1.51 1.53 1.60 1.69 1.73 1.71 1.64 1.64 1.67 1.69 1.79 1.87
2.26 2.23 2.16 2.07 1.95 1.93 1.99 2.05 2.06 2.03 2.02 1.94 1.83 1.71 1.64 1.62 1.55 1.43 1.35 1.29 1.27 1.25 1.28 1.31 1.26 1.22 1.25 1.31 1.36 1.36 1.33 1.28 1.29 1.36 1.40 1.47 1.50 1.48 1.51 1.53 1.51 1.59 1.77
2.03 2.01 2.00 2.00 1.88 1.80 1.88 1.95 1.92 1.86 1.82 1.75 1.62 1.57 1.51 1.42 1.36 1.32 1.29 1.24 1.20 1.23 1.19 1.17 1.17 1.15 1.16 1.16 1.17 1.15 1.16 1.10 1.05 1.09 1.14 1.21 1.30 1.36 1.40 1.47 1.55 1.68 1.81
1.81 1.81 1.80 1.80 1.73 1.63 1.70 1.82 1.84 1.73 1.68 1.57 1.44 1.40 1.41 1.37 1.31 1.29 1.26 1.22 1.19 1.14 1.13 1.12 1.10 1.06 1.04 1.03 1.01 0.99 0.99 0.94 0.94 1.00 1.00 1.06 1.20 1.29 1.34 1.43 1.46 1.55 1.65